User: anonymous   Login
Location: Unspecified
(0.0000°N, 0.0000°E)
Time: 08:12:35
(UTC+02:00)
Language:

NATO 3D Rocket - Orbit

View from above orbital plane
View from above orbital plane
View from above satellite
View from above satellite

Ground track
Ground track

The orbit data is extracted from the following two-line orbital elements,

1 15392U 84115B   16205.86061844 +.00000227 +00000-0 +52420-4 0  9998
2 15392 021.4990 011.4120 1034587 221.3471 130.3919 12.45533852425256
Epoch (UTC): 23 July 2016 20:39:17
Eccentricity: 0.1034587
inclination: 21.4990°
perigee height: 670 km
apogee height: 2296 km
right ascension of ascending node: 11.4120°
argument of perigee: 221.3471°
revolutions per day: 12.45533852
mean anomaly at epoch: 130.3919°
orbit number at epoch: 42525

The dashed part of the orbit path shows where the satellite is in the earth's shadow,  

DLR